User: anonymous   Login
Location: Noordwijk
(52.2400°N, 4.4500°E)
Time: 22:52:09
(UTC+00:00)
Language:

CUBEBUG 2 - Orbit

View from above orbital plane
View from above orbital plane
View from above satellite
View from above satellite

Ground track
Ground track

The orbit data is extracted from the following two-line orbital elements,

1 39440U 13066AA  24051.60923900  .00006078  00000-0  74197-3 0  9999
2 39440  97.8013 358.0371 0070229 298.9168  60.5013 14.81911447550915
Epoch (UTC): 20 February 2024 14:37:18
Eccentricity: 0.0070229
inclination: 97.8013°
perigee height: 574 km
apogee height: 672 km
right ascension of ascending node: 358.0371°
argument of perigee: 298.9168°
revolutions per day: 14.81911447
mean anomaly at epoch: 60.5013°
orbit number at epoch: 55091

The dashed part of the orbit path shows where the satellite is in the earth's shadow,  

DLR